This is the latest recevied weather packets stored in our database for station/object KM4CNW. If no packets are shown the sender has not sent any weather packets the latest 10 day(s).
| Time | Temp. | Humidity | Pressure | Rain* | Wind** | Luminosity | Snow |
|---|---|---|---|---|---|---|---|
| 1777685196 | 12.78° C | 72% | 1007.5 hPa | 0 mm | - | 0 W/m² | - |
| 1777684894 | 12.78° C | 72% | 1007.4 hPa | 0 mm | - | 0 W/m² | - |
| 1777684590 | 12.78° C | 72% | 1007.5 hPa | 0 mm | - | 0 W/m² | - |
| 1777684286 | 12.78° C | 71% | 1007.6 hPa | 0 mm | - | 0 W/m² | - |
| 1777683984 | 12.78° C | 70% | 1007.4 hPa | 0 mm | - | 0 W/m² | - |
| 1777683680 | 13.33° C | 70% | 1007.4 hPa | 0 mm | - | 0 W/m² | - |
| 1777683378 | 13.33° C | 69% | 1006.9 hPa | 0 mm | - | 0 W/m² | - |
| 1777683075 | 13.33° C | 69% | 1006.9 hPa | 0 mm | - | 0 W/m² | - |
| 1777682771 | 13.33° C | 68% | 1006.8 hPa | 0 mm | - | 0 W/m² | - |
| 1777682468 | 13.33° C | 68% | 1007.3 hPa | 0 mm | - | 0 W/m² | - |
| 1777682166 | 13.33° C | 68% | 1006.8 hPa | 0 mm | - | 0 W/m² | - |
| 1777681863 | 13.89° C | 67% | 1006.5 hPa | 0 mm | - | 0 W/m² | - |
| 1777681559 | 13.89° C | 67% | 1006.5 hPa | 0 mm | - | 0 W/m² | - |
| 1777681256 | 13.89° C | 67% | 1006.2 hPa | 0 mm | - | 0 W/m² | - |
| 1777680954 | 13.89° C | 67% | 1006.3 hPa | 0 mm | - | 1 W/m² | - |
| 1777680651 | 13.89° C | 66% | 1006.5 hPa | 0 mm | - | 1 W/m² | - |
| 1777680349 | 13.89° C | 66% | 1006.4 hPa | 0 mm | - | 2 W/m² | - |
| 1777680046 | 14.44° C | 66% | 1006.2 hPa | 0 mm | - | 3 W/m² | - |
| 1777679742 | 14.44° C | 66% | 1006 hPa | 0 mm | - | 5 W/m² | - |
| 1777679438 | 14.44° C | 65% | 1005.8 hPa | 0 mm | - | 5 W/m² | - |
| 1777679134 | 15° C | 65% | 1005.9 hPa | 0 mm | - | 8 W/m² | - |
| 1777678832 | 15° C | 65% | 1006 hPa | 0 mm | - | 8 W/m² | - |
| 1777678529 | 15° C | 65% | 1006 hPa | 0 mm | - | 13 W/m² | - |
| 1777678226 | 15.56° C | 65% | 1006.2 hPa | 0 mm | - | 17 W/m² | - |
| 1777677922 | 15.56° C | 64% | 1006.2 hPa | 0 mm | - | 23 W/m² | - |
* Rain latest hour (hover to see other rain measurements)
** Current wind speed in m/s (hover to see current wind gust speed)